Location: Unspecified
(0.0000°N, 0.0000°E)
Time: 13:33:10
(UTC+00:00)

Courier 1B - All Passes

Search period start: 17 September 2014 00:00
Search period end: 27 September 2014 00:00
Orbit: 963 x 1209 km, 28.3° (Epoch: 15 September)

Date Brightness Start Highest point End Pass type
(mag) Time Alt. Az. Time Alt. Az. Time Alt. Az.
17 Sep - 05:01:59 10° N 05:03:25 11° NNE 05:04:52 10° NNE visible
17 Sep - 06:52:13 10° NNW 06:58:56 31° NNE 07:05:35 10° E daylight
17 Sep - 08:45:41 10° WNW 08:53:33 87° SSW 09:01:06 10° ESE daylight
17 Sep - 10:41:45 10° W 10:48:01 27° SSW 10:54:02 10° SSE daylight
17 Sep - 18:27:01 10° SSW 18:31:48 21° SSE 18:36:36 10° ESE visible
17 Sep - 20:19:31 10° SW 20:26:00 79° SSE 20:32:41 10° ENE visible
17 Sep - 22:14:35 10° W 22:20:12 29° NNW 22:26:03 10° NNE night (unlit)
18 Sep - 05:58:53 10° NNW 06:04:49 23° NNE 06:10:45 10° ENE daylight
18 Sep - 07:51:45 10° NW 07:59:35 70° NNE 08:07:14 10° ESE daylight
18 Sep - 09:47:00 10° W 09:54:02 37° SSW 10:00:49 10° SE daylight
18 Sep - 11:46:39 10° SW 11:49:05 12° SSW 11:51:28 10° S daylight
18 Sep - 17:34:12 10° S 17:37:54 16° SSE 17:41:34 10° ESE daylight
18 Sep - 19:25:59 10° SW 19:32:18 56° SSE 19:38:43 10° ENE visible
18 Sep - 21:20:20 10° W 21:26:22 39° NNW 21:32:37 10° NE visible
18 Sep - 23:18:38 10° NW 23:21:13 12° NNW 23:23:51 10° N night (unlit)
19 Sep - 05:05:48 10° NNW 05:10:38 17° NNE 05:15:30 10° ENE visible
19 Sep - 06:58:00 10° NW 07:05:36 52° NNE 07:13:07 10° ESE daylight
19 Sep - 08:52:31 10° WNW 09:00:04 51° SSW 09:07:24 10° SE daylight
19 Sep - 10:50:26 10° WSW 10:54:54 16° SSW 10:59:16 10° SSE daylight
19 Sep - 16:41:58 10° S 16:43:53 11° SSE 16:45:47 10° SE daylight
19 Sep - 18:32:35 10° SW 18:38:35 39° SSE 18:44:34 10° E visible
19 Sep - 20:26:18 10° WSW 20:32:36 55° NNW 20:39:06 10° NE visible
19 Sep - 22:23:12 10° WNW 22:27:08 16° NNW 22:31:11 10° NNE night (unlit)
20 Sep - 04:13:08 10° N 04:16:22 13° NNE 04:19:39 10° NE visible
20 Sep - 06:04:26 10° NW 06:11:34 39° NNE 06:18:45 10° E daylight
20 Sep - 07:58:16 10° WNW 08:06:06 70° SSW 08:13:47 10° SE daylight
20 Sep - 09:55:01 10° WSW 10:00:47 22° SSW 10:06:24 10° SSE daylight
20 Sep - 17:39:19 10° SSW 17:44:49 28° SSE 17:50:14 10° E daylight
20 Sep - 19:32:27 10° WSW 19:38:55 79° NNW 19:45:27 10° NE visible
20 Sep - 21:28:20 10° WNW 21:33:11 22° NNW 21:38:09 10° NNE visible
21 Sep - 05:11:04 10° NNW 05:17:31 29° NNE 05:24:05 10° E visible
21 Sep - 07:04:15 10° WNW 07:12:07 88° NNE 07:19:58 10° ESE daylight
21 Sep - 09:00:02 10° W 09:06:42 30° SSW 09:13:14 10° SSE daylight
21 Sep - 16:46:11 10° SSW 16:50:57 21° SSE 16:55:37 10° ESE daylight
21 Sep - 18:38:44 10° SW 18:45:14 74° SSE 18:51:42 10° ENE visible
21 Sep - 20:33:48 10° W 20:39:19 30° NNW 20:44:57 10° NNE visible
22 Sep - 04:17:54 10° NNW 04:23:25 22° NNE 04:29:04 10° ENE visible
22 Sep - 06:10:27 10° NW 06:18:09 66° NNE 06:25:57 10° ESE daylight
22 Sep - 08:05:24 10° W 08:12:40 41° SSW 08:19:51 10° SE daylight
22 Sep - 10:04:17 10° SW 10:07:48 13° SSW 10:11:16 10° S daylight
22 Sep - 15:53:15 10° SSW 15:56:59 15° SSE 16:00:39 10° ESE daylight
22 Sep - 17:45:09 10° SW 17:51:32 52° SSE 17:57:47 10° ENE daylight
22 Sep - 19:39:31 10° W 19:45:33 41° NNW 19:51:38 10° NE visible
22 Sep - 21:37:52 10° NW 21:40:14 12° NNW 21:42:37 10° N visible
23 Sep - 03:25:02 10° NNW 03:29:16 16° NNE 03:33:36 10° ENE visible
23 Sep - 05:16:50 10° NW 05:24:10 49° NNE 05:31:41 10° ESE visible
23 Sep - 07:11:02 10° WNW 07:18:39 55° SSW 07:26:17 10° SE daylight
23 Sep - 09:08:30 10° WSW 09:13:34 18° SSW 09:18:34 10° SSE daylight
23 Sep - 15:00:47 10° S 15:02:54 11° SSE 15:04:59 10° SE daylight
23 Sep - 16:51:40 10° SW 16:57:48 37° SSE 17:03:42 10° E daylight
23 Sep - 18:45:26 10° WSW 18:51:51 59° NNW 18:58:11 10° NE visible
23 Sep - 20:42:20 10° WNW 20:46:13 16° NNW 20:50:09 10° NNE visible
24 Sep - 02:32:56 10° N 02:35:04 11° NNE 02:37:13 10° NE visible
24 Sep - 04:23:24 10° NW 04:30:10 36° NNE 04:37:11 10° E visible
24 Sep - 06:16:56 10° WNW 06:24:39 74° SSW 06:32:32 10° SE daylight
24 Sep - 08:13:18 10° WSW 08:19:24 24° SSW 08:25:28 10° SSE daylight
24 Sep - 15:58:18 10° SSW 16:03:58 27° SSE 16:09:24 10° E daylight
24 Sep - 17:51:31 10° WSW 17:58:10 84° NNW 18:04:38 10° ENE daylight
24 Sep - 19:47:25 10° WNW 19:52:19 23° NNW 19:57:15 10° NNE visible
25 Sep - 03:30:11 10° NNW 03:36:10 26° NNE 03:42:22 10° E visible
25 Sep - 05:23:04 10° WNW 05:30:41 84° NNE 05:38:35 10° ESE visible
25 Sep - 07:18:30 10° W 07:25:17 32° SSW 07:32:08 10° SSE daylight
25 Sep - 09:18:45 10° SW 09:20:44 11° SSW 09:22:43 10° S daylight
25 Sep - 15:05:03 10° SSW 15:10:02 20° SSE 15:14:49 10° ESE daylight
25 Sep - 16:57:44 10° SW 17:04:28 70° SSE 17:10:55 10° ENE daylight
25 Sep - 18:52:50 10° W 18:58:31 31° NNW 19:04:08 10° NNE visible
26 Sep - 02:37:13 10° NNW 02:42:08 19° NNE 02:47:12 10° ENE visible
26 Sep - 04:29:24 10° NW 04:36:45 62° NNE 04:44:27 10° ESE visible
26 Sep - 06:24:01 10° W 06:31:14 43° SSW 06:38:36 10° SE daylight
26 Sep - 08:22:19 10° SW 08:26:24 15° SSW 08:30:29 10° S daylight
26 Sep - 14:11:58 10° SSW 14:15:59 16° SSE 14:19:52 10° ESE daylight
26 Sep - 16:04:03 10° SW 16:10:43 50° SSE 16:17:02 10° ENE daylight
26 Sep - 17:58:29 10° W 18:04:47 44° NNW 18:10:53 10° NE daylight
26 Sep - 19:56:46 10° NW 19:59:19 12° NNW 20:01:51 10° N visible
